[ hide orbit diagram ]
For accurate long-term ephemerides, please instead use our Horizons system.This orbit viewer was implemented using two-body methods, and hence should not be used for determining accurate long-term trajectories (over several years or decades) or planetary encounter circumstances.
Orbital Elements at Epoch 2459000.5 (2020-May-31.0) TDB
Reference: JPL 13 (heliocentric ecliptic J2000)
Element | Value | Uncertainty (1-sigma) | Units |
e | .1340818165195327 | 4.22e-08 | |
a | 2.394309001263056 | 2.1622e-08 | au |
q | 2.073275701064637 | 9.8497e-08 | au |
i | 7.450059748279072 | 6.668e-06 | deg |
node | 200.2750963720957 | 4.4975e-05 | deg |
peri | 66.57315305104602 | 5.3652e-05 | deg |
M | 247.7726241861767 | 3.1152e-05 | deg |
tp | 2459422.356778146513 (2021-Jul-26.85677815) | 0.00011963 | TDB |
period | 1353.220985801921 3.70 | 1.8331e-05 5.019e-08 | d yr |
n | .2660319369690113 | 3.6037e-09 | deg/d |
Q | 2.715342301461475 | 2.4522e-08 | au |
|
| | Orbit Determination Parameters
Additional Information
|
[ hide covariance matrix ]
Orbital Elements at Epoch 2456711.5 (2014-Feb-23.0) TDB
Reference: JPL 13 (heliocentric ecliptic J2000)
Element | Value | Uncertainty (1-sigma) | Units |
e | .1346584077981766 | 4.2237e-08 | |
q | 2.071772055185758 | 9.865e-08 | au |
tp | 2456716.581268417242 (2014-Feb-28.08126842) | 0.00010736 | TDB |
node | 200.3065100519017 | 4.4992e-05 | deg |
peri | 66.69665662816502 | 5.3624e-05 | deg |
i | 7.448399897350988 | 6.6694e-06 | deg |
|
| | Orbit Determination Parameters
Additional Information
|
Orbit Covariance (6×6)
|
|
e |
q |
tp |
node |
peri |
i |
e |
1.783937651778604E-15 |
-4.095642904206146E-15 |
1.536282470224001E-12 |
1.519149086624847E-14 |
4.114538766240937E-13 |
-4.738990532274556E-15 |
q |
-4.095642904206146E-15 |
9.7319055014474E-15 |
-3.339072469179908E-12 |
-3.729206104726963E-14 |
-8.917808442991377E-13 |
1.165346326894271E-14 |
tp |
1.536282470224001E-12 |
-3.339072469179908E-12 |
1.152583865050758E-8 |
5.13596733775931E-11 |
3.166385994922417E-9 |
-1.65278715562181E-11 |
node |
1.519149086624847E-14 |
-3.729206104726963E-14 |
5.13596733775931E-11 |
2.02427909484467E-9 |
-1.99298110583288E-9 |
-1.43926977747067E-10 |
peri |
4.114538766240937E-13 |
-8.917808442991377E-13 |
3.166385994922417E-9 |
-1.99298110583288E-9 |
2.875562917252456E-9 |
1.382174174013452E-10 |
i |
-4.738990532274556E-15 |
1.165346326894271E-14 |
-1.65278715562181E-11 |
-1.43926977747067E-10 |
1.382174174013452E-10 |
4.448068484184718E-11 |
|
Physical Parameter Table
Parameter |
Symbol |
Value |
Units |
Sigma |
Reference |
Notes |
absolute magnitude |
H |
17.3 |
|
n/a |
MPO455274 |
|
|
308746 (2006 JT37) Discovered 2006-May-05 by Mt. Lemmon Survey at Mount Lemmon |
Reference: 20111210/Numbers.arc | Last Updated: 2011-12-12 |
|
[ hide close-approach data ]
Close-Approach Data ...sorted by Date/Time (TDB)
|
Date/Time (TDB) |
Time Uncertainty (days_HH:MM) |
Body |
Nominal Distance (au) |
Minimum Distance (au) |
Maximum Distance (au) |
V-relative (km/s) |
V-infinity (km/s) |
JD (TDB) |
Time Uncertainty (minutes) |
Semi-major axis (km) |
Semi-minor axis (km) |
range-LOV angle (deg) |
N-sigma |
BP |
Orbit Ref. |
Reference |
Modified |
2129-Dec-01 06:44 |
00:02 |
Amphi |
0.0202087030656369 |
0.0202071682974284 |
0.0202103653447066 |
5.74066570484609 |
5.74066565529282 |
2498995.780286925 |
2.4470710851879 |
3054.71065512508 |
44.4572645577226 |
88.7613337377265 |
67966.9224543996 |
T |
13 |
CATAB v2.0f-lin.ifort 2020-Nov-11 19:00:12 |
2020-Nov-11 19:00 |
|
|